Location: Gebenbach
(49.5378°N, 11.8735°E)
Time: 03:33:04
(UTC+00:00)

Cosmos 2360 - Pass Details

Date: 29 October 2020
Orbit: 848 x 855 km, 70.8° (Epoch: 27 November)

Event Time Altitude Azimuth Distance (km) Brightness Sun altitude
Rises 17:53:15 0° 197° (SSW) 3,412 7.5 -19.7°
Reaches altitude 10° 17:55:43 10° 194° (SSW) 2,479 6.8 -20.1°
Maximum altitude 18:01:21 65° 114° (ESE) 938 4.1 -21.0°
Enters shadow 18:04:35 26° 40° (NE) 1,623 5.3 -21.5°
